Погода в Верхнем Перевале

Россия / Приморский край     46°33′51″N   134°40′10″E
темп.,
°C
ветер,
м/с
пор.,
м/с
влажн.,
%
обл.,
%
осадки,
мм/ч
давл.,
гПа
погр.,
м
24 апреля, сб
сб2401:00+12зюз2679100 0.1 1021260
04:00+10зсз3765100 0.1 1021337
07:00+6сз4969100 0.2 1022651
10:00+8сз4641100 0.4 10221200
13:00+11зсз4623100 0.0 10201817
16:00+12зсз57172 0.0 10182298
19:00+11сз610235 0.0 10172604
22:00+7сз412295 0.0 1018707
25 апреля, вс
вс2501:00+3з27350 0.0 1018142
04:00+3зсз3936100 0.0 1016440
07:00+3сз410500 0.2 10171524
10:00+6ссз5934100 0.2 10182264
13:00+9ссз6922100 0.0 10183593
16:00+10с51017100 0.0 10183573
19:00+8с352273 0.0 10191055
22:00+3ю11330 0.0 102111
26 апреля, пн
пн2601:00+1ю22400 0.0 102116
04:000ю22455 0.0 102025
07:00+1ю13455 0.0 102184
10:00+9юз34255 0.0 1020870
13:00+13зюз34187 0.0 10181929
16:00+15зюз441959 0.0 10152088
19:00+13юз242855 0.0 1015155
22:00+8ю22395 0.0 101625
27 апреля, вт
вт2701:00+6ю234871 0.0 101644
04:00+4юв2254100 0.0 101528
07:00+5юв2553100 0.0 1014126
10:00+13ююз483799 0.0 1012988
13:00+18юз473349 0.0 10101512
16:00+20юз51034100 0.0 10072312
19:00+17зюз4848100 0.0 1007819
22:00+14юз41158100 0.0 1008899
28 апреля, ср
ср2801:00+11юз41077100 0.1 1007771
04:00+10ю3991100 3.6 1007667
07:00+10ю3993100 2.0 1006713
10:00+12юз467882 3.6 1006946
13:00+16зюз484985 2.1 10052171
16:00+19з682058 2.1 10043262
19:00+15зсз483382 0.0 1006579
22:00+9юз224974 0.0 100815